Location: Austin
(30.3000°N, 97.7500°W)
Time: 04:04:01
(UTC-06:00)

YAOGAN 1 - Pass Details

Date: 13 November 2024
Orbit: 609 x 611 km, 97.8° (Epoch: 05 December)

Event Time Altitude Azimuth Distance (km) Brightness Sun altitude
Rises 19:51:01 0° 187° (S) 2,858 6.1 -29.4°
Reaches altitude 10° 19:53:21 10° 197° (SSW) 1,957 5.3 -29.9°
Maximum altitude 19:57:11 33° 262° (W) 1,028 4.1 -30.7°
Drops below altitude 10° 20:01:04 10° 327° (NNW) 1,967 5.4 -31.5°
Sets 20:03:25 0° 337° (NNW) 2,874 6.2 -32.0°
